Weather History for HESN - August, 2013

Change the Weather History Date:

Wednesday, August 7, 2013

  Actual Average Record
Temperature  
Mean Temperature 94 °F -  
Max Temperature 107 °F 104 °F 113 °F (2010)
Min Temperature 82 °F 81 °F 77 °F (2012)
Cooling Degree Days 30    
Growing Degree Days 44 (Base 50)    
Moisture  
Dew Point 44 °F    
Average Humidity 19    
Maximum Humidity 58    
Minimum Humidity 6    
Precipitation  
Precipitation 0.00 in 0.00 in - ()
Sea Level Pressure  
Sea Level Pressure 29.72 in    
Wind  
Wind Speed 7 mph ()    
Max Wind Speed 15 mph    
Max Gust Speed -    
Visibility 3.0 miles    
Events      
Averages and records for this station are not official NWS values.
T = Trace of Precipitation, MM = Missing Value Source: Averaged Metar Reports

Daily Weather History Graph

Daily Weather History Graph

Search for Another Location

Airport or City:

Trip Planner

Search our weather history database for the weather conditions in past years. The results will help you decide how hot, cold, wet, or windy it might be!

Date:

Astronomy

Aug. 07, 2013 Rise Set
Actual Time 5:20 AM EET 6:28 PM EET
Civil Twilight 4:56 AM EET 6:52 PM EET
Nautical Twilight 4:28 AM EET 7:20 PM EET
Astronomical Twilight 3:58 AM EET 7:49 PM EET
Moon 5:39 AM EET (8/7) 6:37 PM EET (8/7)
Length of Visible Light 13h 55m
Length of Day
13h 07m
New Moon, 0% of the Moon is Illuminated
Aug 7
New Moon
Aug 14
First Quarter
Aug 21
Full
Aug 28
Last Quarter
Sep 5
New

Hourly Weather History & Observations

Time (EET) Temp. Heat Index Dew Point Humidity Pressure Visibility Wind Dir Wind Speed Gust Speed Precip Events Conditions
12:00 AM 89.6 °F - 32.0 °F 13% 29.71 in - WSW 5.8 mph - N/A   Clear
1:00 AM 87.8 °F - 30.2 °F 13% 29.68 in - WSW 5.8 mph - N/A   Clear
2:00 AM 87 °F - 30 °F 6% 29.65 in 6 mi WSW 6.9 mph - -  
2:00 AM 86.0 °F - 30.2 °F 13% 29.68 in - WSW 6.9 mph - N/A   Clear
3:00 AM 86.0 °F - 32.0 °F 14% 29.68 in - West 2.3 mph - N/A   Clear
4:00 AM 84.2 °F - 35.6 °F 18% 29.68 in - East 2.3 mph - N/A   Clear
5:00 AM 82.4 °F - 48.2 °F 30% 29.68 in - SSE 9.2 mph - N/A   Clear
6:00 AM 82.4 °F 83.9 °F 64.4 °F 54% 29.71 in 2.5 mi South 10.4 mph - N/A   Haze
7:00 AM 86.0 °F 90.4 °F 69.8 °F 58% 29.74 in 0.7 mi South 6.9 mph - N/A   Haze
8:00 AM 89 °F - 66 °F 37% 29.71 in 1 mi South 8.1 mph - -   Haze
8:00 AM 89.6 °F 92.2 °F 66.2 °F 46% 29.74 in 0.7 mi South 8.1 mph - N/A   Haze
9:00 AM 95.0 °F 93.7 °F 57.2 °F 28% 29.77 in 0.9 mi South 4.6 mph - N/A   Haze
10:00 AM 98.6 °F - 48.2 °F 18% 29.77 in 1.2 mi South 8.1 mph - N/A   Haze
11:00 AM 102.2 °F - 41.0 °F 12% 29.77 in 2.5 mi South 11.5 mph - N/A   Haze
12:00 PM 105.8 °F - 42.8 °F 12% 29.77 in 3.7 mi South 8.1 mph - N/A   Unknown
1:00 PM 105.8 °F - 50.0 °F 15% 29.71 in 5.0 mi SSE 9.2 mph - N/A   Unknown
2:00 PM 105 °F - 52 °F 10% 29.66 in 6 mi SSE 13.8 mph - -  
2:00 PM 105.8 °F - 51.8 °F 17% 29.71 in - SSE 13.8 mph - N/A   Clear
3:00 PM 105.8 °F - 51.8 °F 17% 29.71 in - West 15.0 mph - N/A   Clear
4:00 PM 105.8 °F - 37.4 °F 10% 29.71 in - South 9.2 mph - N/A   Clear
5:00 PM 102.2 °F - 39.2 °F 11% 29.68 in - South 9.2 mph - N/A   Clear
6:00 PM 98.6 °F - 37.4 °F 12% 29.71 in - West 9.2 mph - N/A   Clear
7:00 PM 96.8 °F - 37.4 °F 13% 29.71 in - WSW 8.1 mph - N/A   Clear
8:00 PM 98 °F - 40 °F 7% 29.69 in 6 mi WNW 10.4 mph - -  
8:00 PM 98.6 °F - 39.2 °F 13% 29.74 in - WNW 10.4 mph - N/A   Clear
9:00 PM 98.6 °F - 39.2 °F 13% 29.77 in - WNW 5.8 mph - N/A   Clear
10:00 PM 96.8 °F - 39.2 °F 14% 29.77 in - WNW 4.6 mph - N/A   Clear
11:00 PM 96.8 °F - 37.4 °F 13% 29.77 in - WNW 5.8 mph - N/A   Clear